Location: Claremont
(33.9858°S, 18.4575°E)
Time: 04:52:42
(UTC+00:00)

RESURS DK-1 - Pass Details

Date: 03 March 2021
Orbit: 554 x 563 km, 69.9° (Epoch: 17 April)

Event Time Altitude Azimuth Distance (km) Brightness Sun altitude
Rises 17:50:56 0° 322° (NW) 2,748 6.2 -7.2°
Reaches altitude 10° 17:53:14 10° 314° (NW) 1,860 5.5 -7.6°
Maximum altitude 17:57:08 39° 244° (WSW) 866 4.1 -8.4°
Drops below altitude 10° 18:01:06 10° 174° (S) 1,884 5.2 -9.2°
Sets 18:03:27 0° 166° (SSE) 2,787 5.9 -9.7°
